Weather History for Al Udeid, Qatar

Change the Weather History Date:

Saturday, March 2, 2013

  Actual Average Record
Temperature  
Mean Temperature 74 °F -  
Max Temperature 85 °F - - ()
Min Temperature 63 °F - - ()
Cooling Degree Days 9    
Growing Degree Days 24 (Base 50)    
Moisture  
Dew Point 58 °F    
Average Humidity 61    
Maximum Humidity 86    
Minimum Humidity 28    
Precipitation  
Precipitation 0.00 in - - ()
Sea Level Pressure  
Sea Level Pressure 30.04 in    
Wind  
Wind Speed 9 mph ()    
Max Wind Speed 18 mph    
Max Gust Speed -    
Visibility 6.1 miles    
Events      
T = Trace of Precipitation, MM = Missing Value Source: Averaged Metar Reports

Daily Weather History Graph

Daily Weather History Graph

Search for Another Location

Airport:

Trip Planner

Search our weather history database for the weather conditions in past years. The results will help you decide how hot, cold, wet, or windy it might be!

Date:

Astronomy

Mar. 02, 2013 Rise Set
Actual Time 5:56 AM AST 5:37 PM AST
Civil Twilight 5:33 AM AST 6:00 PM AST
Nautical Twilight 5:07 AM AST 6:26 PM AST
Astronomical Twilight 4:40 AM AST 6:53 PM AST
Moon 10:14 PM AST (3/2) 8:41 AM AST (3/2)
Length of Visible Light 12h 26m
Length of Day
11h 40m
Waning Gibbous, 77% of the Moon is Illuminated
Mar 2
Waning Gibbous
Mar 5
Last Quarter
Mar 11
New
Mar 19
First Quarter
Mar 27
Full

Hourly Weather History & Observations

Time (AST) Temp. Heat Index Dew Point Humidity Pressure Visibility Wind Dir Wind Speed Gust Speed Precip Events Conditions
12:55 AM 66.0 °F - 61.2 °F 84% 30.01 in 6.2 mi East 8.1 mph - N/A   Clear
1:55 AM 66.2 °F - 60.6 °F 82% 30.00 in 6.2 mi ESE 6.9 mph - N/A   Clear
2:55 AM 66.4 °F - 59.9 °F 80% 29.99 in 6.2 mi East 6.9 mph - N/A   Clear
3:55 AM 64.8 °F - 59.7 °F 84% 30.00 in 6.2 mi East 5.8 mph - N/A   Clear
4:55 AM 64.9 °F - 60.1 °F 84% 30.02 in 6.2 mi East 4.6 mph - N/A   Clear
5:55 AM 63.3 °F - 59.0 °F 86% 30.04 in 6.2 mi ESE 4.6 mph - N/A   Clear
6:55 AM 65.5 °F - 59.4 °F 81% 30.06 in 6.2 mi SE 8.1 mph - N/A   Clear
7:55 AM 70.0 °F - 63.3 °F 79% 30.07 in 6.2 mi SE 10.4 mph - N/A   Clear
8:55 AM 76.8 °F - 61.0 °F 58% 30.09 in 3.7 mi SE 12.7 mph - N/A   Haze
9:55 AM 81.0 °F 81.0 °F 56.8 °F 44% 30.09 in 6.2 mi SE 18.4 mph - N/A   Clear
10:55 AM 82.6 °F 81.6 °F 53.8 °F 37% 30.07 in 6.2 mi SE 17.3 mph - N/A   Partly Cloudy
11:55 AM 84.4 °F - 51.1 °F 32% 30.05 in 6.2 mi SE 17.3 mph - N/A   Partly Cloudy
12:55 PM 84.9 °F - 50.0 °F 30% 30.02 in 6.2 mi SE 12.7 mph - N/A   Partly Cloudy
1:55 PM 85.5 °F - 48.7 °F 28% 30.01 in 6.2 mi SSE 16.1 mph - N/A   Partly Cloudy
2:55 PM 85.3 °F - 48.4 °F 28% 30.00 in 6.2 mi SE 12.7 mph - N/A   Clear
3:55 PM 84.7 °F - 47.8 °F 28% 29.99 in 6.2 mi ESE 13.8 mph - N/A   Clear
4:55 PM 82.6 °F - 52.0 °F 35% 30.00 in 6.2 mi East 12.7 mph - N/A   Clear
5:55 PM 78.6 °F - 56.7 °F 47% 30.01 in 6.2 mi East 10.4 mph - N/A   Clear
6:55 PM 75.7 °F - 60.1 °F 58% 30.03 in 6.2 mi East 9.2 mph - N/A   Clear
7:55 PM 73.4 °F - 62.1 °F 68% 30.06 in 6.2 mi ENE 6.9 mph - N/A   Clear
8:55 PM 72.1 °F - 63.5 °F 74% 30.06 in 6.2 mi ENE 9.2 mph - N/A   Clear
9:55 PM 70.5 °F - 64.6 °F 81% 30.07 in 6.2 mi ENE 8.1 mph - N/A   Clear
10:55 PM 69.3 °F - 64.0 °F 83% 30.06 in 6.2 mi East 6.9 mph - N/A   Clear
11:55 PM 69.1 °F - 64.0 °F 84% 30.04 in 6.2 mi East 10.4 mph - N/A   Clear